Regional Weather Roundup
Issued by NWS Albany, NY

Home | Current Version | Previous Version | Text Only | Print | Product List | Glossary On
Versions: 1 2 3 4 5 6 7 8 9 10 11 12 13 14 15 16 17 18 19 20 21 22 23 24 25 26 27
000
ASUS41 KALY 240110
RWRALY

NEW YORK STATE HOURLY WEATHER ROUNDUP
NATIONAL WEATHER SERVICE ALBANY NY
800 PM EST THU FEB 23 2017

NOTE: "FAIR" INDICATES FEW OR NO CLOUDS BELOW 12,000 FEET WITH NO
SIGNIFICANT WEATHER AND/OR NO OBSTRUCTIONS TO VISIBILITY.

NYZ032-033-038>043-046>054-057>066-NYZ062>081-082-084-240200-
EAST


CITY           SKY/WX    TMP DP  RH WIND       PRES   REMARKS
ALBANY         MOCLDY    63  47  55 S7        29.80R
GLENS FALLS    CLOUDY    50  42  74 SW3       29.78R
POUGHKEEPSIE   PTCLDY    53  47  79 CALM      29.83R
NEWBURGH       PTCLDY    63  54  72 CALM      29.85R
MONTGOMERY     PTCLDY    55  49  80 SW5       29.83R
WHITE PLAINS   PTCLDY    53  48  83 S6        29.86S
ISLIP          PTCLDY    50  47  89 SW8       29.89R
NEW YORK CITY  PTCLDY    56  47  71 CALM      29.86S
CENTRAL PARK   MOCLDY    58  49  72 NE3       29.89S
$$

NYZ005>009-017-018-044>046-055-056-240200-
CENTRAL


CITY           SKY/WX    TMP DP  RH WIND       PRES   REMARKS
FULTON         PTCLDY    50  43  77 NW9       29.85R
SYRACUSE       PTCLDY    55  48  77 W10       29.81R
ROME           MOCLDY    49  47  93 CALM      29.82R
ELMIRA         CLEAR     48  44  86 SW3       29.83R
BINGHAMTON     CLEAR     55  49  80 SW7       29.84R
MONTICELLO     CLEAR     57  50  77 CALM      29.87R
$$

NYZ026>034-041>043-087-240200-
NORTH


CITY           SKY/WX    TMP DP  RH WIND       PRES   REMARKS
WATERTOWN      PTCLDY    45  42  89 SW8       29.82R
FORT DRUM      NOT AVBL
OGDENSBURG     FAIR      48  44  86 W9        29.78R
MASSENA        PTCLDY    51  44  77 W8        29.77R
SARANAC LAKE   CLOUDY    50  46  86 SW8G17    29.75R
PLATTSBURGH    PTCLDY    53  44  71 S7        29.73R
$$

NYZ001>004-010>016-019>021-085-240200-
WEST


CITY           SKY/WX    TMP DP  RH WIND       PRES   REMARKS
NIAGARA FALLS  CLOUDY    50  39  66 N7        29.84F
BUFFALO        CLOUDY    47  42  83 NE3       29.85R
DUNKIRK        PTCLDY    48  46  93 CALM      29.84R
JAMESTOWN        N/A     54  48  82 W3        29.83F
WELLSVILLE     PTCLDY    54  50  86 N3        29.87S
ROCHESTER      PTCLDY    50  41  71 NW5       29.86R
PENN YAN       PTCLDY    59  46  62 W10       29.83R
$$

             KEY
       WCI = WIND CHILL INDEX
       VSB = VISIBILITY
       HX  = HEAT INDEX
$$




USA.gov is the U.S. government's official web portal to all federal, state and local government web resources and services.